STARLINK-5738, 55573

Orbit data source: Space-Track

STARLINK-5738, 55573 is a payload satellite owned by SpaceX/Seattle (US) in LEO that was launched on Sun, 12 Feb 2023 UTC via an FALCON 9 launch vehicle from the Air Force Eastern Test Range (AFETR). Payload-class satellites include a variety of spacecraft equipped with specific instruments for various scientific and technological missions. These include communications satellites like Starlink; space stations such as the ISS; scientific satellites like the Hubble; Earth observation satellites from companies like Planet Labs, Umbra, and HawkEye 360; GPS; miniature CubeSats for education and research; and military/defense satellites.

Loading next visibility...
Identifier
55573, 2023-020E
Orbit
LEO
Country
Flag of USUS
Related business
Manufacturer
SpaceX/Seattle
Mission
Operational Commercial Communications
Bus & Motor
STARLINK, Unknown motor
Mass
305 kg wet, ~290 kg dry
Launch date (UTC)
2023-02-12 (4 years ago)
Launch vehicle
FALCON 9
Launch site
Air Force Eastern Test Range (AFETR)
Object type
Payload
Rocket body
Debris
Shape & HBR
Box + 1 Pan, 10.1 m
Radar Cross Section
13.562 m², Large (>1 m²)

Expand to show TLE details & history
Last TLE update: 7 hours ago

TLE from 7 hours ago
0 STARLINK-5738
1 55573U 23020E   26264.25875171  .00000243  00000-0  18351-4 0  9999
2 55573  43.0046 344.0536 0001200 268.9818  91.0896 15.27576378198781
Epoch: 2026-09-21T06:12Z
TLE epoch observation values (Epoch: 2026-09-21T06:12:36.147Z)
Latitude
-0.00004°
Longitude
-109.23821°
Altitude
482.852 km
Speed
7.626 km/s
True Right ascension
22h 56m 12s
True Declination
0° 00' 00"
Sunlit
Object was in full shadow at epoch
Visualization orbit readout
Latitude
Unknown
Longitude
Unknown
Altitude
Unknown
Speed
Unknown
Apparent Right ascension
Unknown
Apparent Declination
Unknown
Sunlit
N/A
Visualization observer readout
Local Sidereal Time
06:00:24
Azimuth
Unknown
Elevation
Unknown
Doppler factor
Unknown
Orbital elements
Apogee altitude
485.828 km
Perigee altitude
484.181 km
Semi-major axis
6,863.141 km
Eccentricity
0.00012
Inclination
43.0046°
RAAN
344.0536°
Arg. of periapsis
268.9818°
True anomaly
91.10335°
Mean anomaly
91.0896°
Eccentric anomaly
91.09647°
Mean motion
3.81732 °/min
Orbital period
94.31 mins
BSTAR
0.000018351
Loading maneuver chart data...
Computing Atmospheric mass density...
Loading historical data...
Loading historical data...
Loading historical data...
Loading historical data...
Loading historical data...
Loading historical data...
Loading historical data...

Documentation

Showing up to 5 results
|